Home > Weather > Le Havre > Past weeks

Flag for France Past Weather in Le Havre, Upper Normandy, France — Yesterday and Last 2 Weeks

Now
59 °F

Light rain. Overcast.


Feels Like: 57 °F
Forecast: 57 / 65 °F
Wind: 10 mph from Southwest

Location: La Heve

Current Time: Jun 27, 2016 at 12:41:48 AM

Latest Report: Jun 27, 2016 at 12:00 AM


Visibility: N/A

Pressure: 30.12 "Hg

Humidity: 82%

Dew Point: 54 °F

Location of Le HavreLocation

Past Weather in Le Havre — Graph

°F

Le Havre Temperature Yesterday

Maximum temperature yesterday: 63 °F (at 12:30 PM)
Minimum temperature yesterday: 57 °F (at 12:30 AM)
Average temperature yesterday: 59 °F

High & Low Weather Summary for the Past Weeks

 TemperatureHumidityPressure
High77 °F (Jun 22, 2:00 PM)100% (Jun 12, 11:00 AM)30.33 "Hg (Jun 12, 11:00 AM)
Low54 °F (Jun 15, 3:00 AM)59% (Jun 15, 7:00 PM)29.47 "Hg (Jun 14, 9:00 PM)
Average60 °F88%29.92 "Hg
* Reported Jun 11 11:00 PM — Jun 26 11:30 PM, Le Havre, Weather by CustomWeather, © 2016

Note: Actual official high and low records may vary slightly from our data, if they occured in-between our weather recording intervals... More about our weather records

Advertising

Le Havre Weather History for the Previous 24 Hours

Scroll right to see more
 ConditionsComfort  
Time TempWeatherWind HumidityBarometerVisibility
11:30 PM
Sun, Jun 26
59 °FOvercast.12 mph82%30.15 "HgN/A
11:00 PM59 °FMostly cloudy.12 mph82%30.15 "HgN/A
10:30 PM59 °FBroken clouds.13 mph82%30.15 "HgN/A
10:00 PM59 °FSunny.14 mph77%30.15 "Hg10 mi
9:30 PM59 °FScattered clouds.14 mph77%30.15 "HgN/A
9:00 PM59 °FPartly sunny.10 mph77%30.12 "HgN/A
8:30 PM59 °FPassing clouds.9 mph82%30.15 "HgN/A
8:00 PM59 °FPassing clouds.8 mph88%30.12 "HgN/A
7:30 PM59 °FPassing clouds.8 mph88%30.15 "HgN/A
7:00 PM59 °FBroken clouds.10 mph88%30.15 "HgN/A
6:30 PM59 °FPartly sunny.12 mph88%30.15 "HgN/A
6:00 PM61 °FBroken clouds.12 mph77%30.15 "HgN/A
5:30 PM61 °FMostly cloudy.12 mph83%30.15 "HgN/A
5:00 PM61 °FPartly sunny.12 mph77%30.15 "HgN/A
4:30 PM61 °FBroken clouds.10 mph77%30.15 "HgN/A
4:00 PM61 °FOvercast.9 mph83%30.15 "HgN/A
3:30 PM61 °FOvercast.9 mph83%30.15 "HgN/A
3:00 PM63 °FPassing clouds.8 mph77%30.15 "HgN/A
2:30 PM63 °FOvercast.10 mph77%30.15 "HgN/A
2:00 PM61 °FOvercast.9 mph83%30.15 "HgN/A
1:30 PM61 °FOvercast.13 mph83%30.15 "HgN/A
1:00 PM63 °FMostly cloudy.13 mph77%30.15 "HgN/A
12:30 PM63 °FLow clouds.13 mph77%30.15 "HgN/A
12:00 PM61 °FPartly sunny.12 mph83%30.15 "HgN/A
11:30 AM61 °FMostly cloudy.12 mph83%30.15 "HgN/A
11:00 AM61 °FMostly cloudy.10 mph83%30.15 "HgN/A
10:30 AM59 °FMostly cloudy.10 mph88%30.12 "HgN/A
10:00 AM59 °FMostly cloudy.12 mph88%30.12 "HgN/A
9:30 AM57 °FMostly cloudy.10 mph88%30.12 "HgN/A
9:00 AM57 °FMostly cloudy.10 mph88%30.12 "HgN/A
8:30 AM57 °FMostly cloudy.9 mph88%30.12 "HgN/A
8:00 AM57 °FLow clouds.10 mph88%30.12 "HgN/A
7:30 AM57 °FLow clouds.9 mph88%30.12 "HgN/A
7:00 AM57 °FLow clouds.10 mph88%30.09 "HgN/A
6:30 AM57 °FLow clouds.13 mph88%30.09 "HgN/A
6:00 AM57 °FLow clouds.13 mph88%30.09 "HgN/A
5:30 AM57 °FLow clouds.9 mph88%30.09 "HgN/A
5:00 AM57 °FLow clouds.10 mph88%30.09 "HgN/A
4:30 AM57 °FLow clouds.9 mph88%30.09 "HgN/A
4:00 AM57 °FMostly cloudy.10 mph88%30.09 "HgN/A
3:30 AM57 °FMostly cloudy.12 mph88%30.09 "HgN/A
3:00 AM57 °FMostly cloudy.15 mph88%30.09 "HgN/A
2:30 AM57 °FOvercast.14 mph88%30.09 "HgN/A
2:00 AM57 °FMostly cloudy.15 mph88%30.09 "HgN/A
1:30 AM57 °FPartly cloudy.12 mph94%30.09 "HgN/A
1:00 AM57 °FPassing clouds.13 mph94%30.09 "HgN/A
12:30 AM57 °FPartly cloudy.14 mph88%30.09 "HgN/A
12:00 AM59 °FPassing clouds.14 mph88%30.09 "HgN/A
Weather by CustomWeather, © 2016

See weather overviewHow to use our weather pages